Ft Pierce, FL

11:56 AM EDT on September 25, 2017 (GMT -0400)
Saint Lucie County International

Weather History for KFPR - September, 2013

Change the Weather History Date:

Wednesday, September 18, 2013

  Actual Average Record
Temperature  
Mean Temperature 76 °F 81 °F  
Max Temperature 84 °F 88 °F 96 °F (1987)
Min Temperature 71 °F 73 °F 67 °F (1951)
Degree Days  
Heating Degree Days 0 0  
Month to date heating degree days 0  
Since 1 July heating degree days 0  
Cooling Degree Days 12 16  
Month to date cooling degree days 288  
Year to date cooling degree days 2557  
Growing Degree Days 26 (Base 50)    
Moisture  
Dew Point 73 °F    
Average Humidity 88    
Maximum Humidity 100    
Minimum Humidity 74    
Precipitation  
Precipitation 0.77 in 0.25 in 5.95 in (1947)
Month to date precipitation 4.35  
Year to date precipitation 40.64  
Sea Level Pressure  
Sea Level Pressure 29.99 in    
Wind  
Wind Speed 7 mph (ENE)    
Max Wind Speed 14 mph    
Max Gust Speed 18 mph    
Visibility 9 miles    
Events Rain , Thunderstorm    
T = Trace of Precipitation, MM = Missing Value Source: NWS Daily Summary

Daily Weather History Graph

Daily Weather History Graph

Search for Another Location

Airport or City:

Trip Planner

Search our weather history database for the weather conditions in past years. The results will help you decide how hot, cold, wet, or windy it might be!

Date:

Astronomy

Sep. 18, 2013 Rise Set
Actual Time 7:08 AM EDT 7:22 PM EDT
Civil Twilight 6:44 AM EDT 7:45 PM EDT
Nautical Twilight 6:17 AM EDT 8:12 PM EDT
Astronomical Twilight 5:50 AM EDT 8:40 PM EDT
Moon 6:45 PM EDT (9/18) 6:10 AM EDT (9/18)
Length of Visible Light 13h 00m
Length of Day
12h 14m
Waxing Gibbous, 99% of the Moon is Illuminated
Sep 18
Waxing Gibbous
Sep 19
Full
Sep 26
Last Quarter
Oct 4
New
Oct 11
First Quarter

Hourly Weather History & Observations

Time (EDT) Temp. Heat Index Dew Point Humidity Pressure Visibility Wind Dir Wind Speed Gust Speed Precip Events Conditions
12:53 AM 75.0 °F - 73.0 °F 94% 29.99 in 9.0 mi East 11.5 mph 18.4 mph 0.06 in Rain Light Rain
1:53 AM 75.0 °F - 73.0 °F 94% 29.98 in 10.0 mi East 5.8 mph - 0.00 in   Clear
2:53 AM 75.0 °F - 72.0 °F 90% 29.96 in 10.0 mi ENE 3.5 mph - N/A   Partly Cloudy
3:53 AM 75.0 °F - 73.0 °F 94% 29.96 in 10.0 mi East 3.5 mph - N/A   Partly Cloudy
4:53 AM 73.9 °F - 73.0 °F 97% 29.95 in 10.0 mi Variable 4.6 mph - 0.08 in Rain Light Rain
5:53 AM 73.0 °F - 73.0 °F 100% 29.96 in 10.0 mi SW 4.6 mph - 0.07 in   Mostly Cloudy
6:01 AM 71.6 °F - 71.6 °F 100% 29.96 in 10.0 mi WSW 3.5 mph - N/A   Scattered Clouds
6:24 AM 73.4 °F - 73.4 °F 100% 29.98 in 1.8 mi ESE 12.7 mph 16.1 mph 0.16 in Rain Heavy Rain
6:42 AM 73.4 °F - 73.4 °F 100% 29.99 in 1.2 mi Calm Calm - 0.51 in Rain , Thunderstorm Heavy Rain
6:48 AM 73.4 °F - 73.4 °F 100% 29.99 in 7.0 mi Calm Calm - 0.53 in Rain Rain
6:53 AM 73.0 °F - 73.0 °F 100% 29.99 in 7.0 mi SSW 4.6 mph - 0.55 in Rain Heavy Rain
7:53 AM 72.0 °F - 72.0 °F 100% 29.99 in 8.0 mi WNW 3.5 mph - 0.00 in   Scattered Clouds
8:53 AM 75.0 °F - 73.9 °F 96% 30.00 in 10.0 mi Calm Calm - N/A   Scattered Clouds
9:53 AM 79.0 °F - 73.0 °F 82% 30.01 in 10.0 mi East 10.4 mph - 0.01 in   Partly Cloudy
10:53 AM 80.1 °F 84.2 °F 73.0 °F 79% 30.02 in 10.0 mi East 10.4 mph - N/A   Scattered Clouds
11:53 AM 82.0 °F 87.9 °F 73.9 °F 76% 30.02 in 10.0 mi East 9.2 mph - N/A   Scattered Clouds
12:53 PM 82.0 °F 87.9 °F 73.9 °F 76% 30.01 in 10.0 mi ENE 9.2 mph - N/A   Mostly Cloudy
1:53 PM 82.9 °F 89.4 °F 73.9 °F 74% 30.00 in 10.0 mi NE 9.2 mph - N/A   Mostly Cloudy
2:00 PM 82.4 °F 88.2 °F 73.4 °F 74% 30.00 in 10.0 mi East 13.8 mph 18.4 mph N/A   Scattered Clouds
2:53 PM 82.9 °F 89.4 °F 73.9 °F 74% 29.99 in 10.0 mi NE 9.2 mph 16.1 mph N/A   Scattered Clouds
3:53 PM 82.0 °F 87.4 °F 73.0 °F 74% 29.97 in 10.0 mi ENE 12.7 mph - N/A   Scattered Clouds
4:53 PM 80.1 °F 84.5 °F 73.9 °F 81% 29.97 in 10.0 mi ENE 5.8 mph - N/A   Scattered Clouds
5:53 PM 81.0 °F 85.8 °F 73.0 °F 77% 29.97 in 10.0 mi ENE 10.4 mph - N/A   Partly Cloudy
6:53 PM 79.0 °F - 72.0 °F 79% 29.98 in 10.0 mi Variable 4.6 mph - N/A   Partly Cloudy
7:53 PM 75.9 °F - 72.0 °F 87% 30.00 in 10.0 mi SE 3.5 mph - N/A   Mostly Cloudy
8:53 PM 78.1 °F - 73.9 °F 87% 30.01 in 10.0 mi Calm Calm - 0.00 in   Mostly Cloudy
9:53 PM 78.1 °F - 73.0 °F 84% 30.02 in 10.0 mi ENE 4.6 mph - 0.00 in Rain Light Rain
10:53 PM 75.9 °F - 72.0 °F 87% 30.02 in 10.0 mi NE 3.5 mph - 0.00 in   Clear
11:53 PM 75.9 °F - 73.0 °F 91% 30.02 in 10.0 mi NNE 3.5 mph - N/A   Mostly Cloudy